EW1315 Weather Reports


time (UTC)temp
C
wind
direction
speed
KPH
gust
KPH
rain 1hr
cm
rain 24hr
cm
rain mn
cm
humidity
%
barometer
mb
20260508033503 9 114 1.6 3.2 0.00 0.00 0.00 79 1012.4
20260508033003 9 108 1.6 4.8 0.00 0.00 0.00 79 1012.4
20260508032503 10 111 1.6 4.8 0.00 0.00 0.00 79 1012.3
20260508032003 10 113 1.6 4.8 0.00 0.00 0.00 78 1012.4
20260508031503 10 110 1.6 3.2 0.00 0.00 0.00 78 1012.4
20260508031003 10 106 1.6 3.2 0.00 0.00 0.00 78 1012.3
20260508030503 10 109 1.6 4.8 0.00 0.00 0.00 77 1012.4
20260508030217 10 107 1.6 4.8 0.00 0.00 0.00 77 1012.2
20260508025503 10 107 1.6 4.8 0.00 0.00 0.00 76 1012.3
20260508025217 10 112 1.6 4.8 0.00 0.00 0.00 76 1012.3
20260508024715 10 106 1.6 4.8 0.00 0.00 0.00 75 1012.3
20260508024003 10 105 1.6 4.8 0.00 0.00 0.00 75 1012.2
20260508023503 10 107 3.2 4.8 0.00 0.00 0.00 75 1012.2
20260508023003 10 102 1.6 4.8 0.00 0.00 0.00 76 1012.3
20260508022503 10 100 1.6 3.2 0.00 0.00 0.00 76 1012.3
20260508022003 10 104 1.6 3.2 0.00 0.00 0.00 76 1012.4
20260508021503 10 104 1.6 3.2 0.00 0.00 0.00 76 1012.4
20260508021003 10 102 1.6 3.2 0.00 0.00 0.00 76 1012.4
20260508020503 10 104 1.6 3.2 0.00 0.00 0.00 76 1012.3
20260508020003 10 105 1.6 4.8 0.00 0.00 0.00 75 1012.3
20260508015503 10 104 1.6 4.8 0.00 0.00 0.00 75 1012.5
20260508015003 10 107 1.6 4.8 0.00 0.00 0.00 75 1012.4
20260508014503 9 109 1.6 4.8 0.00 0.00 0.00 75 1012.4
20260508014003 9 110 1.6 4.8 0.00 0.00 0.00 75 1012.5
20260508013503 9 106 1.6 3.2 0.00 0.00 0.00 75 1012.2
20260508013004 10 103 1.6 3.2 0.00 0.00 0.00 75 1012.3
20260508012503 9 108 1.6 3.2 0.00 0.00 0.00 75 1012.5
20260508012003 10 110 1.6 4.8 0.00 0.00 0.00 75 1012.5
20260508011503 10 104 1.6 4.8 0.00 0.00 0.00 74 1012.5
20260508011003 10 104 1.6 3.2 0.00 0.00 0.00 74 1012.6
20260508010503 10 109 1.6 3.2 0.00 0.00 0.00 74 1012.4
20260508010213 10 108 1.6 3.2 0.00 0.00 0.00 74 1012.5
20260508005503 10 108 1.6 4.8 0.00 0.00 0.00 73 1012.4
20260508005003 10 113 1.6 4.8 0.00 0.00 0.00 73 1012.4
20260508004503 10 123 1.6 4.8 0.00 0.00 0.00 73 1012.6
20260508004003 10 121 1.6 4.8 0.00 0.00 0.00 73 1012.4
20260508003503 10 110 1.6 6.4 0.00 0.00 0.00 73 1012.5
20260508003004 10 105 1.6 6.4 0.00 0.00 0.00 72 1012.4
20260508002503 10 107 1.6 4.8 0.00 0.00 0.00 72 1012.4
20260508002003 10 108 1.6 4.8 0.00 0.00 0.00 72 1012.3
20260508001503 10 105 1.6 4.8 0.00 0.00 0.00 72 1012.5
20260508001003 10 121 1.6 4.8 0.00 0.00 0.00 72 1012.5
20260508000503 10 128 1.6 4.8 0.00 0.00 0.00 72 1012.7
20260508000003 10 127 1.6 4.8 0.00 0.00 0.00 72 1012.6
20260507235503 10 123 1.6 4.8 0.00 0.00 0.00 72 1012.7
20260507235214 10 116 1.6 3.2 0.00 0.00 0.00 71 1012.6
20260507234503 10 109 1.6 4.8 0.00 0.00 0.00 71 1012.7
20260507234003 10 110 1.6 4.8 0.00 0.00 0.00 71 1012.6
20260507233503 10 113 1.6 3.2 0.00 0.00 0.00 71 1012.7
20260507233003 11 116 1.6 4.8 0.00 0.00 0.00 71 1012.6
20260507232714 11 113 1.6 4.8 0.00 0.00 0.00 71 1012.6
20260507232004 11 114 1.6 4.8 0.00 0.00 0.00 72 1012.6
20260507231503 11 108 1.6 4.8 0.00 0.00 0.00 72 1012.7
20260507231003 11 109 1.6 4.8 0.00 0.00 0.00 73 1012.6
20260507230503 11 110 1.6 4.8 0.00 0.00 0.00 72 1012.6
20260507230008 11 108 1.6 4.8 0.00 0.00 0.00 73 1012.7
20260507225503 11 109 1.6 4.8 0.00 0.00 0.00 74 1012.7
20260507225003 11 111 1.6 4.8 0.00 0.00 0.00 74 1012.5
20260507224504 10 118 1.6 4.8 0.00 0.00 0.00 75 1012.6
20260507224003 10 116 1.6 4.8 0.00 0.00 0.00 78 1012.6
20260507223503 10 96 0.0 4.8 0.00 0.00 0.00 83 1012.6
20260507223003 10 91 0.0 3.2 0.00 0.00 0.00 84 1012.6
20260507222503 10 83 0.0 1.6 0.00 0.00 0.00 84 1012.5
20260507222003 10 78 0.0 3.2 0.00 0.00 0.00 84 1012.5
20260507221503 10 83 0.0 3.2 0.00 0.00 0.00 85 1012.5
20260507221003 10 87 0.0 3.2 0.00 0.00 0.00 85 1012.6
20260507220717 10 92 0.0 3.2 0.00 0.00 0.00 85 1012.5
20260507220003 10 103 0.0 3.2 0.00 0.00 0.00 85 1012.7
20260507215718 10 100 0.0 3.2 0.00 0.00 0.00 85 1012.7
20260507215003 10 103 0.0 3.2 0.00 0.00 0.00 85 1012.8
20260507214504 10 105 0.0 3.2 0.00 0.00 0.00 85 1012.7
20260507214003 10 104 0.0 3.2 0.00 0.00 0.00 85 1012.9
20260507213714 10 108 0.0 3.2 0.00 0.00 0.00 85 1012.8
20260507213003 10 116 1.6 3.2 0.00 0.00 0.00 83 1012.6
20260507212503 10 112 1.6 3.2 0.00 0.00 0.00 84 1012.5
20260507212003 10 108 0.0 3.2 0.00 0.00 0.00 84 1012.6
20260507211503 10 110 1.6 3.2 0.00 0.00 0.00 84 1012.6
20260507211003 10 109 1.6 3.2 0.00 0.00 0.00 84 1012.6
20260507210503 11 104 1.6 3.2 0.00 0.00 0.00 84 1012.5
20260507210004 11 104 0.0 3.2 0.00 0.00 0.00 84 1012.4
20260507205503 11 105 0.0 3.2 0.00 0.00 0.00 84 1012.6
20260507205003 11 106 0.0 3.2 0.00 0.00 0.00 84 1012.5
20260507204503 10 102 0.0 3.2 0.00 0.00 0.00 84 1012.6
20260507204003 11 98 0.0 3.2 0.00 0.00 0.00 84 1012.3
20260507203715 11 100 0.0 3.2 0.00 0.00 0.00 84 1012.5
20260507203003 11 106 0.0 3.2 0.00 0.00 0.00 84 1012.3
20260507202503 11 109 0.0 3.2 0.00 0.00 0.00 84 1012.3
20260507202214 11 108 0.0 3.2 0.00 0.00 0.00 84 1012.2
20260507201503 11 106 0.0 3.2 0.00 0.00 0.00 84 1012.2
20260507201003 11 106 0.0 3.2 0.00 0.00 0.00 83 1012.3
20260507200503 11 95 0.0 3.2 0.00 0.00 0.00 83 1012.3
20260507200003 11 89 0.0 3.2 0.00 0.00 0.00 83 1012.1
20260507195504 11 107 0.0 3.2 0.00 0.00 0.00 83 1012.3
20260507195217 11 111 0.0 3.2 0.00 0.00 0.00 83 1012.0
20260507194715 11 106 0.0 3.2 0.00 0.00 0.00 82 1012.1
20260507194004 11 80 0.0 3.2 0.00 0.00 0.00 81 1012.2
20260507193503 11 76 0.0 3.2 0.00 0.00 0.00 81 1012.0
20260507193003 11 94 0.0 3.2 0.00 0.00 0.00 79 1012.1
20260507192503 11 108 0.0 3.2 0.00 0.00 0.00 78 1012.1
20260507192003 11 105 1.6 3.2 0.00 0.00 0.00 78 1012.1
20260507191503 11 109 1.6 3.2 0.00 0.00 0.00 78 1012.3
20260507191003 11 111 1.6 3.2 0.00 0.00 0.00 80 1012.3
20260507190504 11 111 1.6 3.2 0.00 0.00 0.00 79 1012.1
20260507190004 11 116 1.6 3.2 0.00 0.00 0.00 79 1012.1
20260507185503 11 121 1.6 3.2 0.00 0.00 0.00 79 1012.1
20260507185212 11 123 1.6 3.2 0.00 0.00 0.00 79 1011.9
20260507184715 11 123 1.6 4.8 0.00 0.00 0.00 78 1011.9
20260507184003 11 112 1.6 3.2 0.00 0.00 0.00 78 1011.9
20260507183503 11 124 0.0 3.2 0.00 0.00 0.00 78 1011.7
20260507183003 11 138 1.6 3.2 0.00 0.00 0.00 76 1011.6
20260507182503 12 122 1.6 3.2 0.00 0.00 0.00 77 1011.8
20260507182003 12 139 1.6 4.8 0.00 0.00 0.00 77 1011.6
20260507181503 12 149 1.6 6.4 0.00 0.00 0.00 75 1011.5
20260507181003 12 139 1.6 6.4 0.00 0.00 0.00 73 1011.5
20260507180503 12 135 1.6 4.8 0.00 0.00 0.00 72 1011.6
20260507180003 12 135 1.6 4.8 0.00 0.00 0.00 71 1011.5
20260507175715 12 134 1.6 4.8 0.00 0.00 0.00 70 1011.5
20260507175003 12 138 1.6 3.2 0.00 0.00 0.00 70 1011.6
20260507174716 12 135 1.6 3.2 0.00 0.00 0.00 70 1011.3
20260507174003 12 125 1.6 3.2 0.00 0.00 0.00 70 1011.4
20260507173503 13 118 1.6 3.2 0.00 0.00 0.00 70 1011.3
20260507173004 13 120 1.6 4.8 0.00 0.00 0.00 68 1011.4
20260507172503 13 139 1.6 4.8 0.00 0.00 0.00 68 1011.4
20260507172003 13 153 1.6 4.8 0.00 0.00 0.00 68 1011.4
20260507171714 13 159 1.6 6.4 0.00 0.00 0.00 68 1011.3
20260507171217 13 156 3.2 8.0 0.00 0.00 0.00 69 1011.6
20260507170503 13 155 3.2 8.0 0.00 0.00 0.00 68 1011.6
20260507170003 13 164 3.2 6.4 0.00 0.00 0.00 67 1011.6
20260507165503 13 166 3.2 6.4 0.00 0.00 0.00 67 1011.6
20260507165003 13 163 3.2 8.0 0.00 0.00 0.00 66 1011.5
20260507164503 13 155 3.2 8.0 0.00 0.00 0.00 63 1011.5
20260507164003 13 148 1.6 8.0 0.00 0.00 0.00 62 1011.6
20260507163503 14 149 1.6 6.4 0.00 0.00 0.00 60 1011.7
20260507163003 14 162 3.2 6.4 0.00 0.00 0.00 60 1011.6
20260507162503 14 168 3.2 6.4 0.00 0.00 0.00 59 1011.8
20260507162003 14 161 1.6 6.4 0.00 0.00 0.00 58 1011.7
20260507161503 14 157 1.6 6.4 0.00 0.00 0.00 56 1011.8
20260507161003 14 152 1.6 6.4 0.00 0.00 0.00 55 1011.7
20260507160503 15 155 1.6 6.4 0.00 0.00 0.00 54 1011.7
20260507160003 14 162 1.6 6.4 0.00 0.00 0.00 53 1011.6
20260507155504 15 158 1.6 4.8 0.00 0.00 0.00 52 1011.6
20260507155214 15 162 1.6 4.8 0.00 0.00 0.00 52 1011.5
20260507154504 15 156 1.6 4.8 0.00 0.00 0.00 52 1011.6
20260507154004 15 150 1.6 4.8 0.00 0.00 0.00 52 1011.6
20260507153504 15 151 1.6 3.2 0.00 0.00 0.00 52 1011.5
20260507153003 15 155 1.6 3.2 0.00 0.00 0.00 51 1011.6
20260507152503 15 153 1.6 4.8 0.00 0.00 0.00 51 1011.4
20260507152003 15 145 1.6 4.8 0.00 0.00 0.00 51 1011.6
20260507151503 15 151 1.6 4.8 0.00 0.00 0.00 50 1011.4
20260507151003 15 166 1.6 4.8 0.00 0.00 0.00 51 1011.7
20260507150504 15 171 3.2 6.4 0.00 0.00 0.00 51 1011.6
20260507150004 15 175 3.2 8.0 0.00 0.00 0.00 51 1011.7
20260507145503 15 168 1.6 8.0 0.00 0.00 0.00 51 1011.6
20260507145003 15 163 1.6 4.8 0.00 0.00 0.00 50 1011.5
20260507144713 15 159 1.6 4.8 0.00 0.00 0.00 49 1011.8
20260507144003 15 154 1.6 4.8 0.00 0.00 0.00 49 1011.7
20260507143505 15 149 1.6 6.4 0.00 0.00 0.00 49 1011.7
20260507143003 15 158 1.6 6.4 0.00 0.00 0.00 49 1011.9
20260507142504 15 159 1.6 6.4 0.00 0.00 0.00 49 1011.9
20260507142003 15 162 3.2 8.0 0.00 0.00 0.00 49 1011.8
20260507141503 15 160 3.2 8.0 0.00 0.00 0.00 49 1011.9
20260507141003 15 159 1.6 8.0 0.00 0.00 0.00 48 1011.9
20260507140503 15 163 3.2 6.4 0.00 0.00 0.00 49 1012.0
20260507140003 16 162 3.2 6.4 0.00 0.00 0.00 48 1012.2
20260507135503 16 155 1.6 6.4 0.00 0.00 0.00 48 1012.0
20260507135215 16 148 1.6 4.8 0.00 0.00 0.00 47 1012.0
20260507134503 16 142 1.6 4.8 0.00 0.00 0.00 44 1012.0
20260507134216 16 148 1.6 4.8 0.00 0.00 0.00 45 1011.9
20260507133503 16 170 1.6 8.0 0.00 0.00 0.00 44 1011.8
20260507133212 16 167 3.2 8.0 0.00 0.00 0.00 42 1011.9
20260507132715 16 154 3.2 6.4 0.00 0.00 0.00 42 1011.8
20260507132003 17 150 3.2 9.7 0.00 0.00 0.00 41 1012.0
20260507131503 17 133 1.6 9.7 0.00 0.00 0.00 41 1011.9
20260507131003 17 119 1.6 6.4 0.00 0.00 0.00 39 1011.9
20260507130503 17 148 1.6 6.4 0.00 0.00 0.00 38 1011.8
20260507130215 17 149 1.6 6.4 0.00 0.00 0.00 40 1011.9
20260507125503 16 129 1.6 6.4 0.00 0.00 0.00 40 1011.9
20260507125003 16 120 1.6 6.4 0.00 0.00 0.00 40 1011.9
20260507124503 16 127 1.6 6.4 0.00 0.00 0.00 41 1012.0
20260507124217 17 154 1.6 6.4 0.00 0.00 0.00 40 1012.0
20260507123503 17 146 1.6 4.8 0.00 0.00 0.00 41 1012.1
20260507123003 17 141 1.6 8.0 0.00 0.00 0.00 42 1012.1
20260507122503 17 141 1.6 8.0 0.00 0.00 0.00 41 1011.9
20260507122004 17 152 1.6 11.3 0.00 0.00 0.00 41 1012.2
20260507121503 16 165 3.2 11.3 0.00 0.00 0.00 41 1012.1
20260507121003 17 162 1.6 8.0 0.00 0.00 0.00 40 1012.2
20260507120503 17 126 1.6 4.8 0.00 0.00 0.00 44 1012.4
20260507120004 16 109 1.6 4.8 0.00 0.00 0.00 48 1012.1
20260507115503 17 123 1.6 4.8 0.00 0.00 0.00 44 1012.2
20260507115003 17 158 1.6 8.0 0.00 0.00 0.00 42 1012.4
20260507114503 17 155 1.6 8.0 0.00 0.00 0.00 43 1012.2
20260507114003 16 141 1.6 6.4 0.00 0.00 0.00 42 1012.3
20260507113503 17 139 1.6 6.4 0.00 0.00 0.00 42 1012.4
20260507113214 16 134 1.6 8.0 0.00 0.00 0.00 46 1012.5
20260507112503 16 161 1.6 8.0 0.00 0.00 0.00 44 1012.4
20260507112004 17 164 1.6 6.4 0.00 0.00 0.00 49 1012.4
20260507111504 16 163 1.6 8.0 0.00 0.00 0.00 51 1012.4
20260507111003 16 159 1.6 8.0 0.00 0.00 0.00 51 1012.5
20260507110504 16 144 1.6 4.8 0.00 0.00 0.00 53 1012.4
20260507110003 15 118 1.6 4.8 0.00 0.00 0.00 53 1012.4
20260507105503 14 82 1.6 4.8 0.00 0.00 0.00 56 1012.6
20260507105003 13 106 1.6 4.8 0.00 0.00 0.00 54 1012.5
20260507104504 14 123 1.6 4.8 0.00 0.00 0.00 55 1012.6
20260507104004 15 126 1.6 6.4 0.00 0.00 0.00 56 1012.4
20260507103503 14 109 1.6 6.4 0.00 0.00 0.00 60 1012.6
20260507103214 14 104 1.6 4.8 0.00 0.00 0.00 60 1012.7
20260507102503 13 106 1.6 4.8 0.00 0.00 0.00 63 1012.6
20260507102215 13 108 1.6 4.8 0.00 0.00 0.00 62 1012.8
20260507101503 12 111 3.2 4.8 0.00 0.00 0.00 64 1012.7
20260507101003 12 110 1.6 4.8 0.00 0.00 0.00 66 1012.8
20260507100504 12 117 1.6 3.2 0.00 0.00 0.00 65 1013.0
20260507100003 12 124 1.6 3.2 0.00 0.00 0.00 65 1013.0
20260507095503 12 123 1.6 3.2 0.00 0.00 0.00 66 1012.9
20260507095003 12 126 1.6 4.8 0.00 0.00 0.00 67 1013.1
20260507094504 12 146 1.6 6.4 0.00 0.00 0.00 67 1013.0
20260507094004 12 138 1.6 6.4 0.00 0.00 0.00 68 1012.9
20260507093503 12 114 1.6 3.2 0.00 0.00 0.00 68 1013.2
20260507093003 11 117 1.6 4.8 0.00 0.00 0.00 69 1013.0
20260507092503 11 114 1.6 4.8 0.00 0.00 0.00 69 1012.9
20260507092003 11 106 1.6 3.2 0.00 0.00 0.00 68 1012.9
20260507091504 11 100 1.6 3.2 0.00 0.00 0.00 69 1012.9
20260507091003 10 96 1.6 3.2 0.00 0.00 0.00 71 1013.0
20260507090504 10 119 1.6 4.8 0.00 0.00 0.00 70 1013.0
20260507090004 11 124 1.6 4.8 0.00 0.00 0.00 69 1013.0
20260507085503 10 104 1.6 4.8 0.00 0.00 0.00 72 1013.0
20260507085003 10 97 1.6 3.2 0.00 0.00 0.00 73 1012.9
20260507084717 10 99 1.6 4.8 0.00 0.00 0.00 73 1012.9
20260507084214 10 105 1.6 4.8 0.00 0.00 0.00 74 1012.9
20260507083503 10 108 1.6 4.8 0.00 0.00 0.00 74 1013.0
20260507083215 10 105 1.6 4.8 0.00 0.00 0.00 75 1013.0
20260507082504 10 101 1.6 3.2 0.00 0.00 0.00 76 1012.8
20260507082003 9 101 1.6 4.8 0.00 0.00 0.00 76 1012.8
20260507081503 9 100 1.6 6.4 0.00 0.00 0.00 76 1012.9
20260507081003 9 94 1.6 6.4 0.00 0.00 0.00 77 1012.9
20260507080504 8 92 1.6 3.2 0.00 0.00 0.00 77 1012.9
20260507080213 9 98 1.6 4.8 0.00 0.00 0.00 79 1012.6
20260507075503 8 106 1.6 4.8 0.00 0.00 0.00 78 1012.8
20260507075003 8 105 1.6 4.8 0.00 0.00 0.00 79 1012.8
20260507074503 8 103 1.6 4.8 0.00 0.00 0.00 79 1013.0
20260507074003 8 101 1.6 4.8 0.00 0.00 0.00 80 1012.9
20260507073503 8 100 1.6 4.8 0.00 0.00 0.00 80 1012.8
20260507073216 8 98 1.6 4.8 0.00 0.00 0.00 80 1012.8
20260507072503 8 99 1.6 4.8 0.00 0.00 0.00 81 1013.0
20260507072003 8 98 1.6 4.8 0.00 0.00 0.00 81 1012.7
20260507071503 8 98 1.6 4.8 0.00 0.00 0.00 81 1012.9
20260507071004 8 106 3.2 6.4 0.00 0.00 0.00 82 1012.8
20260507070716 8 106 3.2 6.4 0.00 0.00 0.00 82 1012.8
20260507070007 8 105 1.6 4.8 0.00 0.00 0.00 82 1012.8
20260507065503 7 102 1.6 4.8 0.00 0.00 0.00 82 1012.6
20260507065003 7 102 1.6 4.8 0.00 0.00 0.00 83 1012.6
20260507064503 7 101 1.6 4.8 0.00 0.00 0.00 83 1012.6
20260507064003 7 102 1.6 3.2 0.00 0.00 0.00 84 1012.6
20260507063503 7 109 1.6 3.2 0.00 0.00 0.00 84 1012.6
20260507063003 7 109 1.6 3.2 0.00 0.00 0.00 85 1012.6
20260507062503 7 100 1.6 3.2 0.00 0.00 0.00 85 1012.6
20260507062212 7 100 1.6 3.2 0.00 0.00 0.00 85 1012.5
20260507061504 7 102 1.6 3.2 0.00 0.00 0.00 85 1012.4
20260507061003 7 95 1.6 3.2 0.00 0.00 0.00 86 1012.5
20260507060503 7 97 1.6 4.8 0.00 0.00 0.00 86 1012.6
20260507060003 6 102 1.6 4.8 0.00 0.00 0.00 86 1012.5
20260507055503 6 102 1.6 3.2 0.00 0.00 0.00 86 1012.5
20260507055003 6 106 1.6 3.2 0.00 0.00 0.00 86 1012.6
20260507054504 6 109 1.6 3.2 0.00 0.00 0.00 86 1012.5
20260507054003 6 105 1.6 3.2 0.00 0.00 0.00 86 1012.5
20260507053503 6 104 1.6 3.2 0.00 0.00 0.00 86 1012.6
20260507053003 6 99 1.6 3.2 0.00 0.00 0.00 87 1012.6
20260507052503 6 95 1.6 3.2 0.00 0.00 0.00 87 1012.6
20260507052003 6 99 1.6 3.2 0.00 0.00 0.00 87 1012.6
20260507051503 6 98 1.6 3.2 0.00 0.00 0.00 87 1012.6
20260507051003 6 96 1.6 4.8 0.00 0.00 0.00 87 1012.5
20260507050503 6 102 1.6 4.8 0.00 0.00 0.00 87 1012.6
20260507050003 6 103 1.6 3.2 0.00 0.00 0.00 87 1012.6
20260507045503 6 105 1.6 4.8 0.00 0.00 0.00 87 1012.4
20260507045004 6 106 1.6 4.8 0.00 0.00 0.00 87 1012.4
20260507044503 6 101 3.2 4.8 0.00 0.00 0.00 87 1012.3
20260507044004 6 94 3.2 4.8 0.00 0.00 0.00 87 1012.4
20260507043715 6 92 1.6 4.8 0.00 0.00 0.00 88 1012.3
20260507043003 6 93 1.6 4.8 0.00 0.00 0.00 88 1012.2
20260507042503 6 92 1.6 4.8 0.00 0.00 0.00 88 1012.2
20260507042214 6 92 1.6 4.8 0.00 0.00 0.00 88 1012.2
20260507041503 6 92 1.6 4.8 0.00 0.00 0.00 88 1012.2
20260507041215 6 93 1.6 4.8 0.00 0.00 0.00 88 1012.2
20260507040503 6 96 1.6 3.2 0.00 0.00 0.00 88 1012.1
20260507040003 6 93 1.6 3.2 0.00 0.00 0.00 88 1012.4
20260507035503 6 88 1.6 3.2 0.00 0.00 0.00 88 1012.3
20260507035003 6 92 1.6 3.2 0.00 0.00 0.00 88 1012.2
20260507034503 6 96 1.6 3.2 0.00 0.00 0.00 88 1012.2
20260507034213 6 93 1.6 3.2 0.00 0.00 0.00 88 1012.3